This is the latest recevied weather packets stored in our database for station/object KC1HBM. If no packets are shown the sender has not sent any weather packets the latest 1 day(s).
| Time | Temp. | Humidity | Pressure | Rain* | Wind** | Luminosity | Snow |
|---|---|---|---|---|---|---|---|
| 1778103123 | 11.11° C | 99% | 1003.7 hPa | 1.27 mm | - | 27 W/m² | - |
| 1778101301 | 11.67° C | 99% | 1004 hPa | 1.78 mm | - | 22 W/m² | - |
| 1778099786 | 12.22° C | 98% | 1003.9 hPa | 0 mm | - | 21 W/m² | - |
| 1778098876 | 12.22° C | 98% | 1004 hPa | 0 mm | - | 15 W/m² | - |
| 1778098270 | 12.78° C | 98% | 1004.1 hPa | 0 mm | - | 22 W/m² | - |
| 1778096148 | 12.78° C | 97% | 1004.6 hPa | 3.05 mm | - | 34 W/m² | - |
| 1778095845 | 12.78° C | 96% | 1005 hPa | 1.27 mm | - | 32 W/m² | - |
| 1778093722 | 12.22° C | 93% | 1004.9 hPa | 0 mm | - | 17 W/m² | - |
| 1778092813 | 12.22° C | 91% | 1004.4 hPa | 0 mm | - | 22 W/m² | - |
| 1778090691 | 12.78° C | 89% | 1004.7 hPa | 0 mm | - | 32 W/m² | - |
| 1778090084 | 12.78° C | 89% | 1004.6 hPa | 0 mm | - | 40 W/m² | - |
| 1778089175 | 12.78° C | 89% | 1004.7 hPa | 0 mm | - | 86 W/m² | - |
| 1778088872 | 12.78° C | 89% | 1004.9 hPa | 0 mm | - | 61 W/m² | - |
| 1778088569 | 12.78° C | 89% | 1005 hPa | 0 mm | - | 72 W/m² | - |
| 1778088266 | 12.78° C | 89% | 1004.9 hPa | 0 mm | - | 69 W/m² | - |
| 1778087655 | 12.78° C | 89% | 1005.1 hPa | 0 mm | - | 55 W/m² | - |
| 1778086742 | 12.78° C | 90% | 1005.4 hPa | 0 mm | - | 58 W/m² | - |
| 1778085832 | 13.33° C | 88% | 1005.5 hPa | 0 mm | - | 66 W/m² | - |
| 1778085224 | 13.89° C | 88% | 1005.7 hPa | 0 mm | - | 69 W/m² | - |
| 1778084618 | 14.44° C | 87% | 1006.2 hPa | 0 mm | - | 88 W/m² | - |
| 1778084315 | 14.44° C | 87% | 1006.3 hPa | 0 mm | - | 82 W/m² | - |
| 1778082795 | 14.44° C | 87% | 1006.5 hPa | 0 mm | - | 163 W/m² | - |
| 1778081668 | 13.89° C | 89% | 1006.6 hPa | 0 mm | - | 108 W/m² | - |
| 1778080761 | 13.89° C | 89% | 1006.7 hPa | 0 mm | - | 128 W/m² | - |
| 1778080155 | 13.89° C | 89% | 1006.6 hPa | 0 mm | - | 187 W/m² | - |
* Rain latest hour (hover to see other rain measurements)
** Current wind speed in m/s (hover to see current wind gust speed)